TimeEST,TemperatureF,Dew PointF,Humidity,Sea Level PressureIn,VisibilityMPH,Wind Direction,Wind SpeedMPH,Gust SpeedMPH,PrecipitationIn,Events,Conditions,WindDirDegrees,DateUTC
12:55 AM,65.1,59.2,81,30.11,10.0,East,6.9,-,N/A,,Mostly Cloudy,90,2013-01-21 05:55:00
1:55 AM,64.4,59.0,83,30.09,10.0,East,5.8,-,N/A,,Overcast,100,2013-01-21 06:55:00
2:50 AM,64.4,59.0,83,30.08,6.0,East,3.5,-,N/A,,Haze,80,2013-01-21 07:50:00
2:51 AM,64.4,59.0,83,30.08,6.0,East,3.5,-,N/A,,Haze,80,2013-01-21 07:51:00
2:55 AM,63.7,58.8,84,30.08,5.0,East,3.5,-,N/A,,Haze,80,2013-01-21 07:55:00
3:04 AM,64.4,59.0,83,30.08,6.0,Calm,Calm,-,N/A,,Haze,0,2013-01-21 08:04:00
3:05 AM,64.4,59.0,83,30.08,6.0,Calm,Calm,-,N/A,,Haze,0,2013-01-21 08:05:00
3:55 AM,61.9,57.2,85,30.06,10.0,Calm,Calm,-,N/A,,Mostly Cloudy,0,2013-01-21 08:55:00
4:55 AM,60.4,56.7,87,30.06,10.0,Calm,Calm,-,N/A,,Scattered Clouds,0,2013-01-21 09:55:00
5:55 AM,59.4,56.1,89,30.06,10.0,Calm,Calm,-,N/A,,Scattered Clouds,0,2013-01-21 10:55:00
6:55 AM,61.3,58.8,91,30.08,10.0,North,3.5,-,N/A,,Scattered Clouds,10,2013-01-21 11:55:00
7:55 AM,62.1,59.9,93,30.09,10.0,North,4.6,-,N/A,,Mostly Cloudy,10,2013-01-21 12:55:00
8:52 AM,64.4,60.8,88,30.11,10.0,North,3.5,-,N/A,,Mostly Cloudy,10,2013-01-21 13:52:00
8:55 AM,64.8,61.5,89,30.11,10.0,NE,4.6,-,N/A,,Mostly Cloudy,40,2013-01-21 13:55:00
9:03 AM,64.4,60.8,88,30.11,10.0,NNE,3.5,-,N/A,,Mostly Cloudy,30,2013-01-21 14:03:00
9:55 AM,66.9,61.5,83,30.12,10.0,NNW,3.5,-,N/A,,Mostly Cloudy,330,2013-01-21 14:55:00
10:55 AM,74.8,63.7,68,30.12,10.0,WNW,3.5,-,N/A,,Clear,300,2013-01-21 15:55:00
11:55 AM,75.4,63.9,67,30.10,10.0,West,5.8,-,N/A,,Clear,280,2013-01-21 16:55:00
12:55 PM,75.9,64.2,67,30.07,10.0,WNW,5.8,-,N/A,,Scattered Clouds,300,2013-01-21 17:55:00
1:55 PM,72.5,62.8,71,30.05,10.0,NNW,9.2,-,N/A,,Partly Cloudy,330,2013-01-21 18:55:00
2:55 PM,71.8,61.3,70,30.04,10.0,NNW,13.8,-,N/A,,Partly Cloudy,340,2013-01-21 19:55:00
3:55 PM,70.5,61.7,74,30.05,10.0,NNW,12.7,-,N/A,,Clear,330,2013-01-21 20:55:00
4:55 PM,67.5,61.9,82,30.06,10.0,NNW,8.1,-,N/A,,Clear,330,2013-01-21 21:55:00
5:55 PM,64.6,58.8,82,30.06,10.0,NNW,9.2,-,N/A,,Partly Cloudy,330,2013-01-21 22:55:00
6:55 PM,62.8,56.3,79,30.07,10.0,North,9.2,-,N/A,,Clear,350,2013-01-21 23:55:00
7:55 PM,61.2,55.4,81,30.08,10.0,North,5.8,-,N/A,,Clear,360,2013-01-22 00:55:00
8:55 PM,60.4,55.2,83,30.09,10.0,North,5.8,-,N/A,,Scattered Clouds,360,2013-01-22 01:55:00
9:55 PM,61.5,56.3,83,30.11,10.0,North,8.1,-,N/A,,Clear,360,2013-01-22 02:55:00
10:55 PM,61.3,55.8,82,30.11,10.0,North,11.5,18.4,N/A,,Clear,360,2013-01-22 03:55:00
11:55 PM,60.6,54.5,80,30.12,10.0,North,9.2,-,N/A,,Clear,360,2013-01-22 04:55:00